Tracking 18793 objects as of 25-September-2017
HD Live streaming from Space Station
objects crossing your sky now

OPS 9312 (IDSCS 2)

Track OPS 9312 (IDSCS 2) now!
OPS 9312 (IDSCS 2) is classified as:


NORAD ID: 2216
Int'l Code: 1966-053C
Perigee: 33,666.7 km
Apogee: 33,922.1 km
Inclination: 3.0 °
Period: 1,335.2 minutes
Semi major axis: 40165 km
RCS: 0.3162 m2 (medium)
Launch date: June 16, 1966
Source: United States (US)
Launch site: AIR FORCE EASTERN TEST RANGE (AFETR)
aabbcc
Your satellite tracking list
Your tracking list is empty





NASA's NSSDC Master Catalog

Two Line Element Set (TLE):
1 02216U 66053C   17267.54424545 -.00000126  00000-0  00000+0 0  9996
2 02216   3.0109  59.0218 0031784 144.9602  47.5993  1.07851137201597
Source of the keplerian elements: AFSPC